User: anonymous   Login
Location: Caltech
(34.1382°N, 118.1253°W)
Time: 01:24:09
(UTC-08:00)
Language:

Iridium 49 - Orbit

View from above orbital plane
View from above orbital plane
View from above satellite
View from above satellite

Ground track
Ground track

The orbit data is extracted from the following two-line orbital elements,

1 25108U 97082E   17057.59564756  .00000156  00000-0  48485-4 0  9994
2 25108  86.3956 301.6498 0002096  82.0422 309.6863 14.34220372  4525
Epoch (UTC): 26 February 2017 14:17:43
Eccentricity: 0.0002096
inclination: 86.3956°
perigee height: 776 km
apogee height: 779 km
right ascension of ascending node: 301.6498°
argument of perigee: 82.0422°
revolutions per day: 14.34220372
mean anomaly at epoch: 309.6863°
orbit number at epoch: 452

The dashed part of the orbit path shows where the satellite is in the earth's shadow,  

DLR